Weather History for Kenai, AK

Change the Weather History Date:

Thursday, January 5, 2012

  Actual Average Record
Temperature  
Mean Temperature 6 °F -  
Max Temperature 12 °F 17 °F 43 °F (1953)
Min Temperature 1 °F 1 °F -45 °F (1975)
Degree Days  
Heating Degree Days 58    
Moisture  
Dew Point 4 °F    
Average Humidity 85    
Maximum Humidity 92    
Minimum Humidity 67    
Precipitation  
Precipitation 0.04 in - - ()
Sea Level Pressure  
Sea Level Pressure 29.46 in    
Wind  
Wind Speed 11 mph (ESE)    
Max Wind Speed 21 mph    
Max Gust Speed 31 mph    
Visibility 6 miles    
Events Fog , Snow    
Averages and records for this station are not official NWS values.
T = Trace of Precipitation, MM = Missing Value Source: NWS Daily Summary

Daily Weather History Graph

Daily Weather History Graph

Search for Another Location

Airport:

Trip Planner

Search our weather history database for the weather conditions in past years. The results will help you decide how hot, cold, wet, or windy it might be!

Date:

Astronomy

Jan. 05, 2012 Rise Set
Actual Time 10:10 AM AKST 4:10 PM AKST
Civil Twilight 9:12 AM AKST 5:08 PM AKST
Nautical Twilight 8:15 AM AKST 6:05 PM AKST
Astronomical Twilight 7:23 AM AKST 6:57 PM AKST
Moon 1:18 PM AKST (1/5) 7:06 AM AKST (1/5)
Length of Visible Light 7h 56m
Length of Day
6h 00m
Waxing Gibbous, 88% of the Moon is Illuminated
Jan 5
Waxing Gibbous
Jan 8
Full
Jan 16
Last Quarter
Jan 22
New
Jan 30
First Quarter

Hourly Weather History & Observations

Time (AKST) Temp. Windchill Dew Point Humidity Pressure Visibility Wind Dir Wind Speed Gust Speed Precip Events Conditions
12:53 AM 1.9 °F -17.5 °F -0.9 °F 88% 29.45 in 10.0 mi NE 16.1 mph - N/A   Scattered Clouds
1:53 AM 1.9 °F -18.7 °F -0.9 °F 88% 29.44 in 10.0 mi NE 18.4 mph - N/A   Mostly Cloudy
3:53 AM 5.0 °F -15.7 °F 1.0 °F 84% 29.39 in 6.0 mi NNE 20.7 mph 31.1 mph N/A   Overcast
4:53 AM 5.0 °F -12.3 °F 1.9 °F 87% 29.43 in 0.8 mi North 13.8 mph - 0.00 in Snow Light Snow
5:01 AM 5.0 °F -13.0 °F 1.4 °F 85% 29.42 in 0.5 mi North 15.0 mph - 0.00 in Fog , Snow Snow
5:11 AM 5.0 °F -14.2 °F 1.4 °F 85% 29.42 in 0.5 mi North 17.3 mph - 0.00 in Fog , Snow Snow
5:37 AM 5.0 °F -12.3 °F 1.4 °F 85% 29.40 in 1.5 mi North 13.8 mph - 0.00 in Snow Light Snow
5:43 AM 5.0 °F -13.0 °F 1.4 °F 85% 29.39 in 2.5 mi NNE 15.0 mph - 0.00 in Snow Light Snow
5:53 AM 5.0 °F -13.6 °F 1.0 °F 84% 29.42 in 4.0 mi NNE 16.1 mph - 0.00 in Snow Light Snow
6:53 AM 7.0 °F -8.3 °F 3.0 °F 84% 29.42 in 10.0 mi NNE 11.5 mph - 0.00 in   Overcast
7:53 AM 8.1 °F -7.7 °F 5.0 °F 87% 29.42 in 10.0 mi NE 12.7 mph - N/A   Overcast
8:53 AM 8.1 °F -4.3 °F 5.0 °F 87% 29.41 in 9.0 mi NE 8.1 mph - 0.00 in Snow Light Snow
9:05 AM 8.6 °F -4.7 °F 5.0 °F 85% 29.39 in 5.0 mi NE 9.2 mph - 0.00 in Snow Light Snow
9:50 AM 8.6 °F 2.0 °F 3.2 °F 79% 29.41 in 1.8 mi ENE 3.5 mph - 0.00 in Snow Light Snow
9:53 AM 8.1 °F -2.0 °F 3.9 °F 83% 29.42 in 1.2 mi NE 5.8 mph - 0.00 in Snow Light Snow
10:17 AM 6.8 °F -2.0 °F 3.2 °F 85% 29.41 in 1.5 mi NE 4.6 mph - 0.01 in Snow Light Snow
10:36 AM 6.8 °F -5.9 °F 3.2 °F 85% 29.41 in 3.0 mi NE 8.1 mph - 0.01 in Snow Light Snow
10:43 AM 6.8 °F -5.9 °F 3.2 °F 85% 29.41 in 5.0 mi NE 8.1 mph - 0.01 in Snow Light Snow
10:53 AM 7.0 °F -4.5 °F 3.0 °F 84% 29.43 in 10.0 mi NE 6.9 mph - 0.01 in   Overcast
11:22 AM 6.8 °F -5.9 °F 3.2 °F 85% 29.41 in 5.0 mi ENE 8.1 mph - 0.00 in Snow Light Snow
11:53 AM 7.0 °F -6.6 °F 3.0 °F 84% 29.42 in 10.0 mi NE 9.2 mph - 0.00 in   Overcast
12:53 PM 8.1 °F -0.5 °F 5.0 °F 87% 29.44 in 2.0 mi SW 4.6 mph - 0.00 in Snow Light Snow
12:55 PM 8.6 °F 0.1 °F 5.0 °F 85% 29.43 in 1.8 mi SW 4.6 mph - 0.00 in Snow Light Snow
1:25 PM 8.6 °F - 6.8 °F 92% 29.43 in 0.5 mi Calm Calm - 0.02 in Fog , Snow Snow
1:31 PM 8.6 °F - 6.8 °F 92% 29.42 in 0.2 mi Calm Calm - 0.02 in Fog , Snow Snow
1:46 PM 8.6 °F - 6.8 °F 92% 29.44 in 0.5 mi Calm Calm - 0.03 in Fog , Snow Light Snow
1:53 PM 8.1 °F 1.4 °F 6.1 °F 92% 29.45 in 1.0 mi SSW 3.5 mph - 0.03 in Snow Light Snow
2:00 PM 8.6 °F -1.3 °F 6.8 °F 92% 29.44 in 2.0 mi SSW 5.8 mph - 0.00 in Snow Light Snow
2:07 PM 10.4 °F 2.2 °F 8.6 °F 92% 29.44 in 3.0 mi South 4.6 mph - 0.00 in Snow Light Snow
2:27 PM 8.6 °F 0.1 °F 6.8 °F 92% 29.45 in 2.5 mi South 4.6 mph - 0.00 in Snow Light Snow
2:28 PM 8.6 °F 0.1 °F 6.8 °F 92% 29.45 in 3.0 mi SSE 4.6 mph - 0.00 in Snow Light Snow
2:49 PM 6.8 °F -2.0 °F 5.0 °F 92% 29.46 in 3.0 mi SSE 4.6 mph - 0.00 in   Overcast
2:53 PM 7.0 °F -3.3 °F 5.0 °F 92% 29.48 in 3.0 mi SSE 5.8 mph - 0.00 in   Overcast
3:05 PM 6.8 °F -3.5 °F 3.2 °F 85% 29.47 in 4.0 mi South 5.8 mph - N/A   Overcast
3:40 PM 8.6 °F -2.6 °F 5.0 °F 85% 29.48 in 10.0 mi SSE 6.9 mph - N/A   Overcast
3:53 PM 8.1 °F -2.0 °F 5.0 °F 87% 29.49 in 10.0 mi SE 5.8 mph - 0.00 in Snow Light Snow
4:42 PM 8.6 °F -2.6 °F 5.0 °F 85% 29.51 in 8.0 mi SSE 6.9 mph - 0.00 in Snow Light Snow
4:53 PM 9.0 °F -2.2 °F 5.0 °F 84% 29.52 in 6.0 mi SSE 6.9 mph - 0.00 in Snow Light Snow
5:15 PM 8.6 °F -1.3 °F 6.8 °F 92% 29.51 in 9.0 mi SE 5.8 mph - 0.00 in   Overcast
5:38 PM 8.6 °F 0.1 °F 5.0 °F 85% 29.51 in 10.0 mi SSE 4.6 mph - 0.00 in   Overcast
5:53 PM 8.1 °F -2.0 °F 5.0 °F 87% 29.52 in 10.0 mi SSE 5.8 mph - 0.00 in   Overcast
6:09 PM 8.6 °F 0.1 °F 5.0 °F 85% 29.51 in 10.0 mi SE 4.6 mph - N/A   Overcast
6:53 PM 9.0 °F -0.9 °F 6.1 °F 88% 29.53 in 10.0 mi ESE 5.8 mph - N/A   Overcast
7:53 PM 10.0 °F 1.8 °F 7.0 °F 87% 29.52 in 10.0 mi ESE 4.6 mph - N/A   Overcast
8:14 PM 8.6 °F -2.6 °F 5.0 °F 85% 29.51 in 10.0 mi SE 6.9 mph - N/A   Mostly Cloudy
8:26 PM 10.4 °F 2.2 °F 6.8 °F 85% 29.51 in 8.0 mi SSE 4.6 mph - N/A   Overcast
8:53 PM 10.0 °F -0.9 °F 6.1 °F 84% 29.52 in 10.0 mi SE 6.9 mph - N/A   Overcast
9:18 PM 10.4 °F -3.3 °F 5.0 °F 79% 29.51 in 10.0 mi South 10.4 mph - N/A   Scattered Clouds
9:32 PM 10.4 °F -4.8 °F 6.8 °F 85% 29.51 in 10.0 mi South 12.7 mph - N/A   Mostly Cloudy
9:51 PM 12.2 °F -3.1 °F 5.0 °F 73% 29.51 in 10.0 mi South 13.8 mph - N/A   Scattered Clouds
9:53 PM 12.0 °F -3.4 °F 5.0 °F 73% 29.52 in 10.0 mi South 13.8 mph - N/A   Scattered Clouds
10:53 PM 10.9 °F -7.0 °F 1.9 °F 67% 29.52 in 7.0 mi South 18.4 mph - N/A   Clear
11:53 PM 9.0 °F -9.5 °F -0.0 °F 67% 29.51 in 10.0 mi South 18.4 mph 24.2 mph N/A   Clear